Location: Unspecified
(25.7615°N, 0.0000°E)
Time: 12:15:29
(UTC+00:00)

ESTCUBE 1 - Visible Passes

Search period start: 04 April 2026 00:00
Search period end: 14 April 2026 00:00
Orbit: 621 x 630 km, 97.7° (Epoch: 29 March)

Date Brightness Start Highest point End Pass type
(mag) Time Alt. Az. Time Alt. Az. Time Alt. Az.
5 Apr ? 20:33:08 10° N 20:33:08 10° N 20:33:13 10° N visible
6 Apr ? 20:52:14 11° N 20:52:14 11° N 20:52:26 10° N visible
7 Apr ? 21:11:18 11° NNW 21:11:18 11° NNW 21:11:25 10° NNW visible
9 Apr ? 20:12:12 10° NNE 20:12:12 10° NNE 20:12:17 10° NNE visible
10 Apr ? 20:31:17 13° NNE 20:31:17 13° NNE 20:31:51 10° N visible
11 Apr ? 20:50:21 15° N 20:50:21 15° N 20:51:05 10° N visible
12 Apr ? 21:09:25 14° NNW 21:09:25 14° NNW 21:10:02 10° NNW visible
13 Apr ? 21:28:29 11° NNW 21:28:29 11° NNW 21:28:44 10° NNW visible
